Location: Wangen+im+Allg�u
(47.7098°N, 9.8383°E)
Time: 05:39:11
(UTC+02:00)

ISS - Visible Passes

Search period start: 27 May 2018 00:00
Search period end: 06 June 2018 00:00
Orbit: 402 x 407 km, 51.6° (Epoch: 27 May)

Date Brightness Start Highest point End Pass type
(mag) Time Alt. Az. Time Alt. Az. Time Alt. Az.
27 May -3.0 00:21:55 10° WNW 00:25:06 49° NNE 00:26:26 29° ENE visible
27 May -1.4 01:58:27 10° WNW 01:59:02 14° WNW 01:59:02 14° WNW visible
27 May -2.8 21:52:46 10° W 21:55:57 49° NNW 21:59:09 10° ENE visible
27 May -2.6 23:29:40 10° WNW 23:32:49 42° N 23:35:44 11° E visible
28 May -2.8 01:06:13 10° WNW 01:08:21 37° WNW 01:08:21 37° WNW visible
28 May -2.4 22:37:23 10° WNW 22:40:30 39° N 22:43:36 10° ENE visible
29 May -3.7 00:13:59 10° WNW 00:17:15 73° NNE 00:17:42 60° ENE visible
29 May -2.5 21:45:01 10° WNW 21:48:08 40° N 21:51:16 10° ENE visible
29 May -3.2 23:21:46 10° WNW 23:24:59 54° NNE 23:27:06 19° E visible
30 May -1.9 00:58:20 10° WNW 00:59:44 21° W 00:59:44 21° W visible
30 May -2.7 22:29:30 10° WNW 22:32:40 44° N 22:35:49 10° E visible
31 May -3.8 00:06:01 10° WNW 00:09:08 64° SW 00:09:08 64° SW visible
31 May -3.9 23:13:45 10° WNW 23:17:02 83° NNE 23:18:36 28° ESE visible
01 Jun -1.3 00:50:44 10° W 00:51:13 13° W 00:51:13 13° W visible
01 Jun -3.3 22:21:30 10° WNW 22:24:45 59° NNE 22:27:58 10° E visible
01 Jun -2.7 23:58:08 10° WNW 00:00:41 31° SW 00:00:41 31° SW visible
02 Jun -3.6 23:05:43 10° WNW 23:08:56 54° SSW 23:10:11 31° SSE visible
03 Jun -3.9 22:13:24 10° WNW 22:16:41 86° SSW 22:19:41 12° ESE visible
03 Jun -1.7 23:50:35 10° W 23:52:20 16° SW 23:52:20 16° SW visible
04 Jun -2.5 22:57:49 10° W 23:00:40 27° SW 23:01:52 21° S visible
05 Jun -3.2 22:05:20 10° WNW 22:08:29 45° SSW 22:11:26 11° SE visible
